Wind_Speed
4 3 3 2 1 1 1 2 2 3 4 5 6 7 9 10 11 12 12 12 12 12 12 12 12 11 11 11 10 11 11 11 11 11 10 10 10 10 10 10 11 11 11 11 11 11 11 11 11
4 3 2 1 1 1 2 2 2 2 3 5 7 8 9 10 11 13 13 13 13 13 14 13 13 13 12 11 11 11 12 12 12 11 11 11 11 11 11 11 11 12 11 11 12 12 12 12 11
4 3 2 1 1 3 4 4 5 3 4 6 7 9 10 11 12 13 14 14 14 14 15 15 14 13 12 12 12 12 13 13 13 12 12 12 12 12 13 12 12 12 12 12 12 12 12 12 12
6 5 3 2 1 2 4 5 5 5 5 6 8 9 10 12 13 14 14 15 15 15 15 15 14 13 12 12 13 13 14 14 14 14 14 14 14 14 14 14 13 13 13 13 13 13 13 13 13
7 6 4 3 3 3 4 5 6 6 7 8 9 10 12 13 13 14 15 16 16 17 16 16 15 14 13 13 13 13 14 15 15 15 15 15 15 15 15 15 15 15 15 15 15 14 14 14 13
8 7 6 5 5 5 5 6 7 7 8 9 10 11 12 13 14 15 16 16 17 18 17 17 16 15 14 13 13 14 14 15 16 16 16 17 17 16 16 16 16 16 16 16 15 15 15 15 15
9 8 8 7 7 6 6 8 8 8 9 10 11 12 12 12 14 16 17 17 18 19 18 18 17 17 16 15 15 15 15 15 16 16 17 18 18 17 17 17 17 17 17 16 16 15 16 16 16
8 8 8 9 9 8 8 8 9 10 10 10 11 12 12 13 15 16 18 18 18 19 18 18 18 17 17 16 16 16 16 16 16 17 17 18 19 18 18 18 18 18 18 17 17 16 16 17 17
8 8 9 9 9 9 9 9 10 10 9 10 11 12 13 14 15 16 18 19 19 20 18 18 18 18 18 18 18 17 17 17 18 18 19 20 20 20 20 19 19 19 19 19 19 18 18 18 17
9 9 9 10 10 10 9 9 10 9 10 11 12 13 14 15 16 17 18 19 19 20 19 18 18 18 18 19 19 19 19 19 19 19 20 20 21 21 21 20 20 20 19 19 19 19 18 18 18
9 9 10 10 11 11 10 9 10 11 11 12 13 15 15 16 18 19 20 20 20 21 20 19 19 19 18 19 19 20 20 20 20 21 21 21 22 22 22 22 22 22 21 21 21 20 20 20 20
10 11 12 12 12 12 11 11 11 12 13 14 14 16 17 18 19 20 20 21 22 22 21 20 20 20 20 20 20 21 21 22 22 22 23 23 23 23 23 23 22 22 23 23 22 22 22 21 21
11 12 13 13 12 13 13 13 13 13 13 14 15 16 18 19 20 20 21 21 22 22 22 21 21 21 22 22 21 22 22 22 22 23 23 24 24 23 23 23 23 23 23 24 24 24 23 22 22
11 12 13 14 14 15 15 13 13 14 14 15 16 17 18 20 21 21 22 22 22 22 22 23 23 22 23 23 22 22 22 22 23 24 24 24 24 24 25 25 25 24 24 25 26 25 25 24 23
11 11 12 15 15 15 14 13 13 14 15 16 17 17 19 21 22 22 21 22 22 22 21 22 22 22 22 22 22 23 23 23 24 24 24 25 26 26 25 25 25 25 25 26 26 26 26 24 24
12 12 12 14 15 15 15 14 14 15 15 17 18 19 20 21 22 22 22 22 22 22 22 22 21 22 22 22 24 24 25 25 25 25 25 25 26 26 25 25 25 25 25 25 25 26 26 25 25
13 13 12 14 15 15 15 15 15 16 17 18 19 20 21 22 23 22 21 22 22 23 23 23 23 24 24 23 24 25 26 26 26 26 26 26 26 25 25 25 24 25 26 26 25 25 25 25 25
14 13 13 14 16 16 16 17 17 17 18 19 19 20 21 22 22 22 22 22 23 23 23 23 24 25 25 24 25 26 26 26 26 26 26 26 25 25 24 24 24 24 25 26 25 25 25 25 25
14 14 14 15 16 17 17 17 17 17 18 18 19 19 21 21 22 23 23 23 23 23 24 24 25 26 27 26 26 27 27 26 25 26 25 25 25 25 24 23 23 23 23 24 24 24 24 23 24
13 13 14 15 16 17 16 17 17 17 18 19 19 20 20 21 22 23 23 23 24 24 24 26 27 27 27 28 28 28 27 26 26 25 25 25 25 25 24 24 24 24 24 23 24 24 23 24 24
13 14 14 15 16 17 17 17 17 18 19 20 20 20 21 22 22 23 24 24 25 25 26 28 29 29 29 29 29 28 27 27 26 25 25 24 25 26 25 25 25 25 24 23 23 23 24 24 23
13 13 13 14 16 17 18 19 19 20 20 21 21 21 21 22 22 23 24 25 26 26 26 28 29 30 31 30 29 28 27 26 25 25 25 25 25 25 25 25 24 23 23 23 23 24 24 24 24
13 13 13 14 15 16 18 20 19 19 20 20 21 21 21 23 24 25 26 26 26 26 27 29 30 31 31 30 29 27 26 26 25 25 24 24 25 25 25 25 24 23 22 21 22 23 24 24 24
12 13 14 14 14 16 18 20 19 19 20 21 21 21 22 24 25 25 26 27 27 27 28 29 30 30 30 29 27 26 25 24 24 24 23 23 23 24 23 24 23 22 22 21 22 23 23 24 24
12 13 14 15 16 16 18 19 18 19 20 21 22 22 23 25 26 26 26 27 28 28 29 29 30 30 29 27 26 25 25 24 24 24 24 23 22 21 22 22 22 21 21 21 21 22 22 22 23
12 13 15 16 17 17 17 18 19 20 22 23 24 24 25 26 27 27 28 28 29 29 29 30 29 29 27 26 25 24 24 23 22 23 23 21 21 21 21 22 22 22 21 20 21 22 22 22 22
14 15 16 17 18 19 19 19 20 22 23 24 26 26 26 27 27 27 28 28 29 29 29 29 29 28 27 25 24 23 23 23 23 23 22 21 21 21 20 20 21 22 21 21 21 22 23 22 21
16 16 17 18 20 21 21 21 22 23 24 26 26 26 27 27 28 26 27 27 28 28 28 28 28 27 26 25 25 24 23 23 23 22 21 20 21 21 20 19 20 20 21 21 21 21 22 23 22
17 17 18 19 20 21 23 23 24 25 25 26 26 27 27 28 27 25 26 26 27 27 28 27 27 26 25 25 24 24 23 23 22 20 20 20 19 19 19 18 19 20 20 20 20 20 21 21 21
17 18 19 20 20 21 24 24 25 26 26 25 25 25 26 26 25 24 24 25 25 26 27 26 25 25 25 25 24 23 23 22 21 20 19 19 19 19 18 17 18 18 19 19 19 19 19 20 20
Wind_Direction
147 140 140 146 133 351 341 3 355 332 326 345 1 5 357 347 345 347 349 345 342 339 337 333 331 328 326 328 327 326 325 325 323 322 320 318 319 317 312 309 307 305 301 298 296 294 291 287 286
166 158 151 139 62 349 327 334 336 331 338 346 349 353 349 344 340 342 342 341 339 336 332 329 326 323 321 320 320 322 322 322 321 318 316 314 315 314 312 306 303 302 298 296 294 292 290 286 284
192 189 192 240 12 356 333 319 315 328 337 342 343 343 342 340 337 336 334 333 333 331 329 328 326 322 320 318 315 316 318 317 315 314 313 310 310 311 308 304 300 299 297 295 293 290 289 287 284
209 213 222 252 303 321 320 317 323 327 333 335 336 337 335 332 332 331 329 330 330 329 327 324 324 321 317 313 313 313 312 313 313 311 309 308 307 306 305 301 297 295 293 292 291 289 287 288 284
219 227 241 260 262 277 303 315 317 329 336 335 332 330 328 328 328 327 326 327 325 324 324 322 320 315 311 310 312 312 312 310 310 309 308 308 306 303 302 301 294 292 290 289 287 287 287 288 285
225 234 248 263 262 273 289 306 313 316 327 329 329 328 326 327 327 325 324 324 321 321 320 319 317 311 305 305 308 310 311 310 308 307 307 306 304 302 299 297 292 289 288 287 288 287 286 285 285
233 241 254 266 268 275 291 297 306 313 320 323 327 328 328 328 326 325 323 322 322 321 320 317 315 311 304 305 305 305 307 306 305 303 302 301 299 298 296 294 291 289 288 288 287 286 285 283 283
237 243 255 263 270 277 285 294 305 306 312 320 327 330 329 328 325 323 323 321 322 322 319 318 315 310 307 306 304 303 304 301 299 300 299 297 296 294 293 292 288 287 285 286 285 284 283 283 282
242 249 258 265 271 278 282 285 294 296 306 318 320 327 327 326 323 320 322 323 321 322 319 318 316 311 308 308 304 302 301 299 296 296 295 294 294 293 291 289 285 283 282 283 283 281 281 281 280
250 259 266 270 275 277 278 279 285 293 306 311 314 320 323 321 321 321 321 320 321 322 321 319 316 311 307 307 306 303 299 297 294 292 292 293 292 291 290 287 284 281 282 282 282 282 279 278 277
257 266 272 272 275 276 274 279 285 298 307 309 313 317 319 318 316 318 319 318 318 319 319 316 313 311 308 307 306 302 298 295 293 290 290 291 290 288 286 284 280 280 280 280 280 280 279 278 276
263 270 273 274 276 277 280 285 291 297 305 309 312 316 314 314 314 313 314 314 314 315 315 313 309 307 307 307 304 301 298 294 292 291 290 288 288 287 283 280 277 277 278 278 278 278 277 276 275
264 268 271 275 279 282 284 290 292 296 303 309 311 311 310 311 312 311 313 313 312 311 311 312 312 306 304 304 301 299 297 294 293 291 291 289 288 287 284 280 278 278 277 276 276 276 275 274 273
265 275 273 274 280 283 282 283 286 293 298 303 307 310 310 310 312 310 310 311 310 310 311 315 314 307 302 300 298 297 295 291 291 290 289 289 289 287 283 280 277 278 278 277 276 275 274 274 272
266 277 278 277 278 278 279 280 279 288 294 301 304 309 310 311 312 312 310 311 311 311 313 314 311 306 302 302 300 296 294 292 291 290 289 289 288 287 283 279 278 279 278 277 276 274 273 271 272
266 274 281 280 275 277 278 280 283 289 296 300 301 305 310 314 314 312 308 309 311 310 310 310 310 309 306 305 302 297 296 294 294 293 291 290 289 288 284 280 280 278 279 278 276 273 272 271 271
269 276 281 281 282 283 282 281 283 290 296 297 301 304 309 315 316 312 311 313 313 313 311 309 308 309 308 306 303 299 299 295 293 293 291 289 289 289 286 283 281 279 278 276 275 273 272 270 269
272 278 280 280 286 288 287 286 288 294 297 299 302 305 309 314 318 315 312 314 314 312 309 308 308 309 309 306 305 303 302 299 295 294 293 290 288 290 288 284 283 280 278 276 275 274 273 271 268
275 279 281 282 287 288 290 292 295 299 299 301 305 308 311 315 316 316 317 316 315 312 310 310 309 309 307 305 304 302 299 296 295 294 293 291 289 288 287 284 282 280 279 277 275 275 273 272 270
277 281 283 283 285 287 291 296 300 302 304 305 307 310 311 313 313 313 314 317 316 313 311 309 309 310 309 307 305 302 299 295 294 293 292 290 287 286 286 284 280 278 278 276 274 275 273 273 273
279 284 284 284 286 289 295 299 302 303 305 306 306 306 307 309 311 311 312 314 313 313 312 310 311 311 310 308 307 304 301 296 295 293 291 287 285 284 283 282 277 275 275 273 274 273 272 272 272
278 282 285 286 290 293 296 299 302 303 304 305 305 305 305 306 310 312 312 313 313 314 314 315 315 314 313 310 307 305 302 299 296 294 290 288 285 283 284 282 278 276 274 273 273 273 270 269 270
278 281 285 288 292 295 297 298 302 302 302 305 304 303 304 305 308 311 313 314 315 315 316 317 318 317 316 313 310 306 304 301 297 295 292 289 286 284 284 282 278 277 275 274 276 275 271 269 268
281 284 287 290 292 296 299 298 303 305 305 305 308 305 306 307 309 312 314 315 315 315 316 318 319 317 316 314 312 309 306 302 298 296 293 290 287 284 282 279 276 275 274 273 275 276 275 272 269
284 287 289 292 295 299 300 300 307 309 309 308 311 309 308 309 311 312 313 315 315 315 316 318 319 318 317 315 313 311 309 304 300 297 295 292 287 283 280 277 274 273 273 273 273 275 276 273 271
288 290 293 297 300 302 302 304 308 309 309 311 313 312 311 312 314 315 315 315 316 317 318 319 319 319 319 317 316 315 313 309 305 302 299 294 288 284 283 279 274 273 274 273 273 274 274 275 273
293 293 297 298 301 303 305 308 310 311 311 311 313 313 315 315 314 314 316 316 317 317 319 320 321 321 320 318 318 318 316 312 308 304 302 298 292 289 287 284 279 277 276 273 272 275 274 275 273
293 296 297 300 303 305 307 310 313 314 313 313 313 311 312 312 312 313 315 316 317 317 318 320 321 322 321 319 318 318 318 315 310 307 303 299 297 293 290 285 280 277 278 275 271 270 274 275 276
289 293 296 298 301 304 308 311 314 314 315 314 314 312 312 313 315 315 316 317 318 320 321 322 322 322 322 323 322 319 317 315 312 309 304 302 297 295 291 286 279 278 277 275 272 271 274 274 276
288 293 296 298 301 303 306 311 313 313 315 314 314 314 314 313 316 317 319 321 321 321 322 322 323 323 323 323 323 321 318 316 312 309 307 303 300 296 293 290 283 278 277 277 272 271 271 274 276
Height
5888 5889 5890 5891 5891 5891 5890 5890 5889 5889 5889 5889 5888 5888 5888 5888 5888 5889 5886 5883 5882 5881 5880 5878 5877 5875 5874 5873 5873 5872 5872 5871 5871 5870 5870 5870 5869 5869 5868 5868 5868 5867 5867 5867 5867 5867 5867 5867 5868
5888 5889 5890 5891 5890 5890 5890 5889 5889 5888 5889 5889 5888 5888 5887 5886 5886 5885 5883 5882 5880 5879 5878 5877 5875 5874 5873 5872 5871 5871 5870 5870 5869 5868 5868 5868 5867 5867 5866 5866 5866 5865 5865 5865 5865 5865 5865 5865 5865
5888 5889 5890 5890 5890 5890 5890 5889 5888 5888 5888 5888 5888 5887 5886 5885 5884 5883 5882 5880 5879 5878 5876 5875 5873 5872 5871 5870 5870 5869 5868 5868 5867 5867 5866 5866 5865 5865 5864 5864 5864 5863 5863 5863 5863 5863 5863 5862 5862
5888 5889 5890 5890 5890 5890 5889 5888 5888 5887 5887 5887 5887 5886 5885 5884 5883 5882 5880 5879 5877 5876 5875 5873 5872 5870 5869 5868 5867 5867 5866 5866 5865 5864 5864 5863 5863 5862 5862 5861 5861 5860 5860 5860 5860 5860 5860 5860 5860
5888 5889 5889 5889 5889 5889 5888 5888 5887 5887 5886 5886 5886 5885 5884 5883 5881 5880 5878 5877 5875 5874 5872 5871 5869 5868 5867 5866 5865 5865 5864 5863 5863 5862 5861 5861 5860 5860 5859 5858 5858 5857 5857 5857 5856 5856 5857 5857 5857
5888 5888 5889 5888 5888 5888 5887 5887 5886 5886 5885 5885 5884 5883 5882 5881 5879 5878 5876 5875 5873 5871 5870 5868 5867 5865 5864 5863 5863 5862 5862 5861 5860 5859 5858 5858 5857 5856 5856 5855 5854 5854 5854 5853 5853 5853 5853 5854 5853
5887 5887 5887 5887 5887 5887 5887 5886 5885 5884 5884 5884 5883 5882 5880 5879 5877 5876 5874 5872 5871 5869 5867 5865 5864 5863 5862 5861 5860 5859 5858 5858 5857 5856 5855 5854 5853 5853 5852 5851 5851 5851 5850 5850 5850 5850 5850 5850 5850
5885 5887 5886 5885 5885 5886 5885 5885 5884 5883 5883 5882 5881 5880 5879 5877 5875 5873 5872 5870 5868 5866 5864 5862 5861 5859 5858 5857 5857 5856 5855 5854 5853 5852 5851 5850 5850 5849 5848 5848 5847 5847 5846 5846 5846 5846 5846 5846 5846
5885 5886 5884 5884 5884 5884 5883 5883 5882 5882 5881 5880 5880 5879 5877 5875 5873 5871 5869 5868 5865 5863 5861 5859 5858 5856 5855 5854 5853 5852 5851 5851 5849 5848 5847 5846 5845 5845 5844 5843 5843 5843 5842 5842 5842 5842 5842 5842 5842
5884 5884 5884 5883 5883 5882 5882 5881 5880 5880 5879 5879 5878 5877 5875 5873 5871 5869 5867 5865 5863 5860 5858 5856 5855 5853 5852 5850 5849 5848 5847 5846 5845 5844 5843 5842 5841 5840 5839 5839 5839 5838 5838 5837 5838 5838 5838 5838 5838
5882 5882 5882 5881 5881 5880 5880 5879 5879 5878 5878 5877 5876 5874 5872 5870 5869 5866 5864 5862 5859 5857 5855 5853 5851 5849 5847 5846 5845 5844 5843 5842 5840 5839 5838 5837 5835 5835 5834 5834 5834 5833 5833 5833 5833 5833 5833 5834 5833
5881 5881 5880 5880 5879 5879 5878 5877 5877 5876 5876 5875 5873 5872 5870 5868 5866 5863 5860 5858 5856 5854 5852 5850 5848 5846 5844 5842 5841 5840 5838 5837 5836 5834 5833 5831 5830 5829 5829 5829 5828 5828 5828 5828 5827 5828 5828 5828 5828
5879 5879 5878 5878 5877 5877 5876 5875 5875 5874 5873 5872 5870 5869 5867 5865 5862 5860 5857 5855 5853 5850 5848 5846 5844 5842 5840 5838 5837 5835 5834 5832 5830 5829 5828 5826 5825 5824 5823 5823 5822 5822 5822 5822 5821 5822 5822 5823 5823
5877 5877 5876 5876 5875 5874 5873 5873 5872 5871 5870 5869 5868 5866 5864 5862 5859 5857 5854 5852 5849 5847 5844 5842 5840 5838 5835 5833 5831 5830 5828 5826 5825 5823 5822 5820 5818 5818 5817 5817 5817 5816 5816 5816 5816 5816 5816 5816 5817
5875 5875 5874 5873 5872 5871 5871 5871 5870 5869 5868 5866 5865 5863 5861 5859 5856 5853 5850 5848 5846 5843 5841 5839 5836 5833 5830 5828 5826 5824 5822 5820 5819 5817 5815 5814 5812 5811 5811 5811 5811 5810 5810 5810 5809 5809 5810 5810 5810
5873 5873 5872 5871 5869 5868 5870 5868 5867 5865 5865 5863 5862 5860 5857 5855 5852 5849 5846 5844 5841 5839 5836 5834 5832 5829 5826 5823 5821 5819 5816 5814 5812 5811 5809 5807 5806 5805 5804 5804 5804 5803 5803 5802 5803 5803 5803 5803 5803
5871 5870 5869 5868 5867 5866 5865 5864 5864 5863 5862 5860 5858 5856 5854 5851 5848 5845 5842 5840 5837 5834 5832 5829 5826 5824 5821 5819 5816 5814 5811 5808 5806 5804 5802 5800 5799 5798 5797 5797 5797 5796 5796 5796 5796 5796 5796 5796 5796
5869 5868 5866 5865 5864 5863 5862 5861 5861 5860 5858 5857 5855 5853 5850 5848 5845 5842 5839 5836 5833 5830 5827 5824 5821 5818 5816 5813 5810 5807 5805 5802 5800 5797 5795 5794 5792 5791 5790 5790 5790 5789 5789 5789 5789 5790 5789 5789 5790
5866 5865 5864 5863 5861 5860 5859 5858 5858 5857 5855 5854 5852 5849 5847 5844 5841 5838 5835 5832 5828 5825 5821 5819 5816 5812 5809 5806 5804 5801 5798 5795 5793 5791 5789 5787 5786 5785 5784 5783 5783 5783 5782 5783 5783 5783 5782 5782 5783
5863 5863 5862 5861 5859 5857 5857 5856 5855 5854 5852 5850 5848 5846 5843 5841 5837 5834 5831 5828 5824 5821 5817 5814 5810 5806 5803 5800 5796 5793 5791 5788 5786 5783 5782 5780 5779 5778 5777 5777 5776 5776 5776 5776 5776 5775 5775 5776 5776
5861 5860 5859 5858 5856 5855 5854 5854 5853 5851 5849 5847 5845 5842 5840 5837 5834 5830 5827 5823 5820 5816 5812 5808 5804 5800 5797 5793 5789 5786 5783 5781 5778 5776 5775 5773 5771 5771 5770 5770 5769 5770 5769 5769 5769 5769 5769 5769 5769
5859 5858 5857 5855 5854 5852 5852 5850 5850 5848 5846 5844 5842 5839 5836 5833 5830 5826 5822 5818 5815 5811 5807 5803 5798 5794 5790 5785 5781 5778 5775 5772 5770 5768 5767 5765 5764 5763 5762 5762 5762 5762 5762 5762 5762 5762 5762 5762 5763
5857 5855 5854 5853 5851 5851 5849 5848 5847 5844 5843 5841 5838 5835 5832 5829 5825 5822 5817 5813 5809 5805 5801 5797 5792 5787 5783 5778 5774 5770 5767 5764 5762 5760 5759 5757 5757 5756 5755 5754 5754 5755 5755 5755 5755 5755 5755 5756 5756
5854 5853 5852 5851 5849 5849 5847 5845 5844 5842 5839 5837 5833 5830 5828 5824 5821 5817 5813 5808 5804 5800 5795 5791 5786 5781 5776 5772 5768 5764 5760 5757 5755 5753 5751 5750 5749 5748 5748 5747 5747 5748 5748 5749 5749 5749 5749 5749 5749
5852 5851 5850 5848 5847 5846 5844 5842 5841 5838 5836 5833 5830 5827 5823 5819 5815 5811 5807 5803 5799 5794 5789 5785 5780 5775 5770 5766 5762 5758 5754 5751 5749 5747 5745 5743 5742 5742 5741 5741 5741 5741 5742 5742 5742 5743 5743 5743 5743
5849 5849 5848 5846 5844 5843 5841 5839 5838 5835 5831 5828 5825 5821 5818 5814 5809 5805 5802 5797 5793 5788 5783 5779 5774 5769 5765 5760 5757 5753 5749 5745 5743 5741 5739 5737 5736 5735 5735 5734 5734 5735 5735 5735 5736 5736 5737 5737 5736
5847 5845 5845 5843 5840 5839 5837 5836 5833 5830 5827 5824 5820 5817 5813 5809 5804 5800 5796 5792 5787 5783 5778 5773 5768 5764 5759 5755 5751 5747 5744 5740 5738 5735 5733 5731 5730 5729 5728 5728 5728 5728 5729 5729 5729 5730 5730 5730 5730
5844 5843 5841 5839 5837 5834 5833 5831 5829 5826 5823 5819 5816 5812 5808 5804 5799 5795 5791 5787 5782 5778 5773 5768 5764 5759 5755 5750 5746 5742 5739 5735 5733 5730 5728 5726 5724 5723 5722 5722 5722 5722 5722 5723 5723 5723 5724 5724 5724
5841 5839 5837 5836 5834 5831 5828 5829 5825 5821 5818 5814 5811 5807 5802 5799 5794 5790 5786 5782 5777 5773 5768 5764 5759 5755 5750 5746 5742 5738 5735 5731 5728 5726 5723 5721 5719 5718 5717 5717 5716 5716 5716 5717 5717 5717 5717 5718 5718
5837 5836 5834 5833 5830 5828 5825 5826 5820 5816 5812 5809 5806 5802 5798 5794 5789 5786 5782 5778 5773 5769 5764 5760 5755 5751 5746 5742 5738 5734 5730 5727 5724 5722 5720 5717 5715 5714 5713 5712 5711 5711 5711 5711 5711 5711 5711 5711 5711